GW3762 Weather Reports


Display with metric or nautical units.
time (UTC)temp
F
wind
direction
speed
MPH
gust
MPH
rain 1hr
in
rain 24hr
in
rain mn
in
humidity
%
barometer
mb
20260504223457 61 240 4.0 7.0 0.00 0.00 0.00 59 1009.7
20260504222458 61 184 0.0 10.0 0.00 0.00 0.00 59 1009.7
20260504221958 61 226 6.0 10.0 0.00 0.00 0.00 58 1009.8
20260504220958 62 231 6.0 14.0 0.00 0.00 0.00 57 1009.9
20260504220458 62 232 8.0 14.0 0.00 0.00 0.00 56 1009.9
20260504215957 62 232 4.0 13.0 0.00 0.00 0.00 55 1009.8
20260504214957 63 235 9.0 16.0 0.00 0.00 0.00 54 1009.9
20260504214457 63 225 11.0 15.0 0.00 0.00 0.00 54 1009.8
20260504213957 63 242 4.0 16.0 0.00 0.00 0.00 53 1009.9
20260504213458 63 228 5.0 16.0 0.00 0.00 0.00 53 1009.7
20260504212958 64 250 7.0 11.0 0.00 0.00 0.00 53 1009.9
20260504212458 64 227 1.0 10.0 0.00 0.00 0.00 53 1009.8
20260504211957 64 245 7.0 10.0 0.00 0.00 0.00 54 1009.8
20260504211458 63 234 4.0 8.0 0.00 0.00 0.00 53 1009.6
20260504210959 63 198 2.0 8.0 0.00 0.00 0.00 53 1009.8
20260504210457 63 195 1.0 8.0 0.00 0.00 0.00 53 1009.8
20260504210000 63 215 4.0 10.0 0.00 0.00 0.00 52 1009.7
20260504205457 64 269 3.0 10.0 0.00 0.00 0.00 53 1009.6
20260504204958 64 250 3.0 6.0 0.00 0.00 0.00 52 1009.6
20260504204458 64 109 4.0 10.0 0.00 0.00 0.00 50 1009.6
20260504203959 65 183 4.0 14.0 0.00 0.00 0.00 51 1009.7
20260504203457 66 234 3.0 14.0 0.00 0.00 0.00 48 1009.6
20260504203000 67 193 1.0 9.0 0.00 0.00 0.00 49 1009.6
20260504202458 67 222 1.0 9.0 0.00 0.00 0.00 49 1009.7
20260504201957 67 209 1.0 9.0 0.00 0.00 0.00 46 1009.7
20260504201458 67 265 3.0 9.0 0.00 0.00 0.00 49 1009.7
20260504200959 67 230 3.0 9.0 0.00 0.00 0.00 45 1009.6
20260504195957 68 266 6.0 14.0 0.00 0.00 0.00 43 1009.7
20260504194458 68 221 3.0 14.0 0.00 0.00 0.00 43 1009.7
20260504193957 68 194 3.0 18.0 0.00 0.00 0.00 44 1009.7
20260504193457 68 252 11.0 13.0 0.00 0.00 0.00 43 1009.6
20260504192957 68 271 7.0 13.0 0.00 0.00 0.00 42 1009.7
20260504192458 68 232 5.0 13.0 0.00 0.00 0.00 43 1009.7
20260504191958 68 238 4.0 14.0 0.00 0.00 0.00 43 1009.9
20260504191458 68 236 7.0 14.0 0.00 0.00 0.00 42 1009.8
20260504190958 69 241 8.0 16.0 0.00 0.00 0.00 40 1009.9
20260504190458 69 239 4.0 10.0 0.00 0.00 0.00 44 1009.9
20260504185959 69 219 3.0 10.0 0.00 0.00 0.00 43 1009.9
20260504184957 69 242 6.0 11.0 0.00 0.00 0.00 43 1010.0
20260504184457 69 220 2.0 12.0 0.00 0.00 0.00 42 1010.0
20260504183958 69 208 6.0 13.0 0.00 0.00 0.00 41 1010.0
20260504183457 69 242 8.0 13.0 0.00 0.00 0.00 42 1009.9
20260504182957 69 229 5.0 12.0 0.00 0.00 0.00 39 1010.1
20260504182458 68 237 6.0 12.0 0.00 0.00 0.00 43 1010.2
20260504181958 68 250 7.0 13.0 0.00 0.00 0.00 42 1010.2
20260504181458 69 223 6.0 13.0 0.00 0.00 0.00 43 1010.2
20260504180957 69 254 7.0 14.0 0.00 0.00 0.00 42 1010.4
20260504180457 69 233 6.0 13.0 0.00 0.00 0.00 41 1010.4
20260504175956 69 234 3.0 13.0 0.00 0.00 0.00 42 1010.4
20260504175457 69 214 5.0 13.0 0.00 0.00 0.00 43 1010.5
20260504174956 68 246 9.0 18.0 0.00 0.00 0.00 44 1010.6
20260504174456 68 228 5.0 18.0 0.00 0.00 0.00 41 1010.6
20260504173956 68 242 9.0 12.0 0.00 0.00 0.00 43 1010.7
20260504173456 67 259 10.0 16.0 0.00 0.00 0.00 44 1010.9
20260504172957 67 227 4.0 16.0 0.00 0.00 0.00 41 1010.9
20260504172456 67 251 9.0 13.0 0.00 0.00 0.00 44 1010.9
20260504171956 67 231 6.0 16.0 0.00 0.00 0.00 46 1010.9
20260504171457 67 230 6.0 14.0 0.00 0.00 0.00 45 1010.8
20260504170957 67 239 6.0 15.0 0.00 0.00 0.00 40 1010.9
20260504170456 67 241 11.0 15.0 0.00 0.00 0.00 43 1010.9
20260504150957 63 245 4.0 17.0 0.00 0.00 0.00 43 1012.1
20260504140956 61 229 6.0 16.0 0.00 0.00 0.00 44 1012.5
20260504130502 56 265 4.0 15.0 0.00 0.00 0.00 50 1013.1
20260504110455 46 257 5.0 7.0 0.00 0.00 0.00 64 1013.2
20260504100457 44 259 6.0 8.0 0.00 0.00 0.00 66 1012.8
20260504081956 43 264 3.0 7.0 0.00 0.00 0.00 66 1012.4
20260504081457 43 264 4.0 7.0 0.00 0.00 0.00 66 1012.4
20260504080957 43 263 4.0 8.0 0.00 0.00 0.00 65 1012.4
20260504080456 43 263 6.0 8.0 0.00 0.00 0.00 66 1012.3
20260504050457 46 261 3.0 6.0 0.00 0.00 0.00 58 1012.0
20260504045959 46 261 4.0 4.0 0.00 0.00 0.00 58 1012.0
20260504045458 46 261 2.0 4.0 0.00 0.00 0.00 58 1012.1
20260504044958 46 261 3.0 6.0 0.00 0.00 0.00 57 1012.1
20260504044458 46 261 3.0 6.0 0.00 0.00 0.00 56 1012.0
20260504043458 46 259 4.0 6.0 0.00 0.00 0.00 56 1012.1
20260504042958 46 259 3.0 4.0 0.00 0.00 0.00 57 1012.0
20260504041959 46 259 3.0 4.0 0.00 0.00 0.00 57 1012.1
20260504041458 46 259 2.0 4.0 0.00 0.00 0.00 57 1012.0
20260504040458 46 259 3.0 6.0 0.00 0.00 0.00 56 1012.0
20260504040004 46 259 3.0 6.0 0.00 0.00 0.00 54 1012.0
20260504035459 47 261 4.0 6.0 0.00 0.00 0.00 54 1012.0
20260504035000 47 261 4.0 6.0 0.00 0.00 0.00 53 1012.0
20260504033959 47 256 3.0 5.0 0.00 0.00 0.00 53 1011.9
20260504032959 47 255 3.0 5.0 0.00 0.00 0.00 53 1011.9
20260504032458 47 255 3.0 4.0 0.00 0.00 0.00 54 1011.9
20260504031959 47 255 3.0 4.0 0.00 0.00 0.00 53 1011.9
20260504031459 47 255 3.0 5.0 0.00 0.00 0.00 53 1011.9
20260504030459 47 255 4.0 6.0 0.00 0.00 0.00 52 1011.9
20260504030000 47 259 4.0 7.0 0.00 0.00 0.00 52 1011.8
20260504025459 47 258 4.0 7.0 0.00 0.00 0.00 51 1011.8
20260504025000 47 261 6.0 7.0 0.00 0.00 0.00 51 1011.8
20260504023959 47 259 3.0 4.0 0.00 0.00 0.00 51 1011.8
20260504023500 47 259 4.0 4.0 0.00 0.00 0.00 50 1011.8
20260504022959 47 259 3.0 6.0 0.00 0.00 0.00 51 1011.8
20260504022459 47 261 4.0 6.0 0.00 0.00 0.00 51 1011.8
20260504021958 47 262 4.0 4.0 0.00 0.00 0.00 50 1011.9
20260504021459 47 262 4.0 6.0 0.00 0.00 0.00 50 1011.8
20260504015958 47 257 3.0 6.0 0.00 0.00 0.00 50 1011.8
20260504015458 47 257 4.0 6.0 0.00 0.00 0.00 49 1011.7
20260504014958 48 259 3.0 6.0 0.00 0.00 0.00 50 1011.7
20260504014459 48 258 4.0 655.0 8.10 0.21 0.00 49
20260504013459 48 257 4.0 6.0 0.00 0.00 0.00 49 1011.7
20260504012958 48 259 3.0 4.0 0.00 0.00 0.00 49 1011.6
20260504012458 48 259 3.0 4.0 0.00 0.00 0.00 49 1011.5
20260504011959 48 265 3.0 4.0 0.00 0.00 0.00 51 1011.5
20260504011458 48 265 3.0 4.0 0.00 0.00 0.00 50 1011.5
20260504010958 48 265 3.0 4.0 0.00 0.00 0.00 50 1011.4
20260504010458 48 265 4.0 4.0 0.00 0.00 0.00 50 1011.3
20260504010000 48 265 2.0 3.0 0.00 0.00 0.00 52 1011.2
20260504005459 48 265 2.0 3.0 0.00 0.00 0.00 53 1011.2
20260504004459 47 265 3.0 4.0 0.00 0.00 0.00 52 1011.0
20260504003958 47 265 3.0 4.0 0.00 0.00 0.00 52 1011.0
20260504003458 47 265 2.0 4.0 0.00 0.00 0.00 51 1010.9
20260504002959 48 265 3.0 3.0 0.00 0.00 0.00 51 1010.8
20260504002459 48 265 2.0 3.0 0.00 0.00 0.00 50 1010.7
20260504001958 48 265 1.0 3.0 0.00 0.00 0.00 51 1010.7
20260504001458 48 265 3.0 3.0 0.00 0.00 0.00 53 1010.6
20260504001000 48 265 1.0 3.0 0.00 0.00 0.00 52 1010.6
20260504000459 48 265 2.0 3.0 0.00 0.00 0.00 49 1010.5
20260503235957 48 265 2.0 3.0 0.00 0.00 0.00 47 1010.3
20260503234957 49 265 1.0 2.0 0.00 0.00 0.00 45 1010.2
20260503234458 49 265 0.0 2.0 0.00 0.00 0.00 46 1010.2
20260503233958 49 265 1.0 2.0 0.00 0.00 0.00 49 1010.2
20260503233458 49 265 1.0 3.0 0.00 0.00 0.00 47 1010.1
20260503232958 50 290 2.0 3.0 0.00 0.00 0.00 49 1010.0
20260503232457 50 234 2.0 3.0 0.00 0.00 0.00 46 1010.0
20260503231457 51 254 2.0 5.0 0.00 0.00 0.00 46 1010.0
20260503230958 51 96 6.0 6.0 0.00 0.00 0.00 45 1009.9
20260503230458 52 301 0.0 4.0 0.00 0.00 0.00 43 1009.9
20260503230001 52 290 2.0 4.0 0.00 0.00 0.00 43 1009.8
20260503225459 52 269 1.0 7.0 0.00 0.00 0.00 45 1009.8
20260503224959 52 259 2.0 7.0 0.00 0.00 0.00 45 1009.7
20260503224459 52 249 1.0 5.0 0.00 0.00 0.00 44 1009.7
20260503223958 52 180 0.0 4.0 0.00 0.00 0.00 45 1009.7